Regional Weather Roundup
Issued by NWS

Home | Current Version | Previous Version | Text Only | Print | Product List | Glossary Off
Versions: 1 2 3 4 5 6 7 8 9 10 11 12 13 14 15 16 17 18 19 20 21 22 23 24 25 26 27 28 29 30 31 32 33 34 35 36 37 38 39 40 41 42 43 44 45 46 47 48 49 50

000
ASUS44 KMEG 291510
RWRTN
TENNESSEE HOURLY STATE WEATHER ROUNDUP
NATIONAL WEATHER SERVICE MEMPHIS TN
1000 AM CDT SAT AUG 29 2015

TNZ002-004-019-021-049-052-054-088>092-291600-
WEST TENNESSEE

CITY           SKY/WX    TMP DP  RH WIND       PRES   REMARKS
MEMPHIS INTL   MOSUNNY   82  70  66 S7        30.09R
NWS MEMPHIS      N/A     82 N/A N/A MISG        N/A
JACKSON        SUNNY     80  71  74 S7        30.10S
DYERSBURG      SUNNY    N/A N/A N/A MISG        N/A
UNION CITY     SUNNY     82  73  74 S7        30.07S
PARIS          SUNNY     79  70  73 S8        30.11R
LEXINGTON      PTSUNNY   79  72  78 VRB7      30.12R
$$

TNZ008-025-027-028-033-062-065-066-291600-
NORTH MIDDLE TENNESSEE

CITY           SKY/WX    TMP DP  RH WIND       PRES   REMARKS
NASHVILLE      PTSUNNY   82  67  60 SW8       30.15R
CLARKSVILLE    SUNNY     81  69  67 S12       30.12S
SMYRNA         MOSUNNY   81  69  66 S10       30.16R
COOKEVILLE     MOSUNNY   79  70  73 S9        30.19R
CROSSVILLE     PTSUNNY   76  66  71 VRB6      30.26R
$$

TNZ061-075-076-078-094-096-097-291600-
SOUTH MIDDLE TENNESSEE

CITY           SKY/WX    TMP DP  RH WIND       PRES   REMARKS
FAYETTEVILLE     N/A     77  66  69 CALM      30.18R
TULLAHOMA      MOSUNNY   77  66  69 SE9       30.20R
WINCHESTER     MOSUNNY   79  70  73 SE10      30.18S
MCMINNVILLE    SUNNY     81  72  74 VRB3      30.19R
COLUMBIA       MOSUNNY   82  75  78 S7        30.14R
SHELBYVILLE    CLOUDY    81  72  74 SE6       30.18R
$$

TNZ017-018-042-046-047-291600-
NORTHEAST TENNESSEE

CITY           SKY/WX    TMP DP  RH WIND       PRES   REMARKS
TRI CITIES     PTSUNNY   73  62  68 CALM      30.26S
ELIZABETHTON   SUNNY     72  61  68 VRB3      30.27S
$$

TNZ012-013-036-069-073-074-291600-
CENTRAL EAST TENNESSEE

CITY           SKY/WX    TMP DP  RH WIND       PRES   REMARKS
KNOXVILLE      PTSUNNY   82  71  69 CALM      30.22R
OAK RIDGE      SUNNY     80  64  58 VRB3      30.23R
GATLINBURG     SUNNY     79  61  53 VRB3      30.22S
MORRISTOWN     SUNNY     77  63  61 VRB3      30.25S
$$

TNZ083-085-099-291600-
SOUTHEAST TENNESSEE

CITY           SKY/WX    TMP DP  RH WIND       PRES   REMARKS
CHATTANOOGA    PTSUNNY   79  69  71 SE8       30.20S
$$

SKY/WX REPORTED AS FAIR MEANS FEW OR NO CLOUDS BELOW
12 THOUSAND FEET.



USA.gov is the U.S. government's official web portal to all federal, state and local government web resources and services.